Weather History for KBRL - October, 2013

Change the Weather History Date:

Tuesday, October 8, 2013

  Actual Average Record
Temperature  
Mean Temperature 62 °F 58 °F  
Max Temperature 78 °F 69 °F 89 °F (1916)
Min Temperature 45 °F 47 °F 27 °F (1952)
Degree Days  
Heating Degree Days 3 8  
Month to date heating degree days 32 55  
Since 1 July heating degree days 84 126  
Cooling Degree Days 0 1  
Month to date cooling degree days 32 11  
Year to date cooling degree days 1114 1193  
Growing Degree Days 12 (Base 50)    
Moisture  
Dew Point 46 °F    
Average Humidity 61    
Maximum Humidity 93    
Minimum Humidity 28    
Precipitation  
Precipitation 0.00 in 0.11 in 0.82 in (2004)
Month to date precipitation 0.20 0.87  
Year to date precipitation 28.46 31.64  
Sea Level Pressure  
Sea Level Pressure 30.12 in    
Wind  
Wind Speed 8 mph (South)    
Max Wind Speed 17 mph    
Max Gust Speed 24 mph    
Visibility 10 miles    
Events      
T = Trace of Precipitation, MM = Missing Value Source: NWS Daily Summary

Daily Weather History Graph

Daily Weather History Graph

Search for Another Location

Airport or City:

Trip Planner

Search our weather history database for the weather conditions in past years. The results will help you decide how hot, cold, wet, or windy it might be!

Date:

Astronomy

Oct. 08, 2013 Rise Set
Actual Time 7:08 AM CDT 6:34 PM CDT
Civil Twilight 6:41 AM CDT 7:02 PM CDT
Nautical Twilight 6:09 AM CDT 7:33 PM CDT
Astronomical Twilight 5:37 AM CDT 8:05 PM CDT
Moon 11:04 AM CDT (10/8) 9:10 PM CDT (10/8)
Length of Visible Light 12h 20m
Length of Day
11h 26m
Waxing Crescent, 16% of the Moon is Illuminated
Oct 8
Waxing Crescent
Oct 11
First Quarter
Oct 18
Full
Oct 26
Last Quarter
Nov 3
New

Hourly Weather History & Observations

Time (CDT) Temp. Dew Point Humidity Pressure Visibility Wind Dir Wind Speed Gust Speed Precip Events Conditions
12:53 AM 48.9 °F 45.0 °F 86% 30.09 in 10.0 mi Calm Calm - N/A   Clear
1:53 AM 51.1 °F 46.0 °F 83% 30.11 in 10.0 mi SSW 5.8 mph - N/A   Clear
2:53 AM 50.0 °F 46.0 °F 86% 30.11 in 10.0 mi SSW 3.5 mph - N/A   Clear
3:53 AM 48.9 °F 45.0 °F 86% 30.11 in 10.0 mi SSW 5.8 mph - N/A   Clear
4:53 AM 48.0 °F 45.0 °F 89% 30.12 in 10.0 mi South 3.5 mph - N/A   Clear
5:53 AM 46.9 °F 45.0 °F 93% 30.14 in 10.0 mi SSW 3.5 mph - N/A   Clear
6:53 AM 46.9 °F 45.0 °F 93% 30.14 in 9.0 mi South 4.6 mph - N/A   Clear
7:53 AM 50.0 °F 46.0 °F 86% 30.15 in 10.0 mi South 4.6 mph - N/A   Clear
8:53 AM 54.0 °F 48.9 °F 83% 30.17 in 10.0 mi South 5.8 mph - N/A   Clear
9:53 AM 60.1 °F 50.0 °F 69% 30.17 in 9.0 mi SSW 6.9 mph - N/A   Clear
10:53 AM 66.0 °F 48.9 °F 54% 30.16 in 10.0 mi South 8.1 mph - N/A   Clear
11:53 AM 72.0 °F 48.9 °F 44% 30.15 in 10.0 mi South 9.2 mph - N/A   Clear
12:53 PM 75.0 °F 44.1 °F 33% 30.13 in 10.0 mi South 15.0 mph - N/A   Clear
1:53 PM 77.0 °F 42.1 °F 29% 30.10 in 10.0 mi SSE 12.7 mph 24.2 mph N/A   Clear
2:53 PM 78.1 °F 43.0 °F 29% 30.09 in 10.0 mi South 11.5 mph - N/A   Clear
3:53 PM 77.0 °F 42.1 °F 29% 30.08 in 10.0 mi South 10.4 mph - N/A   Clear
4:53 PM 75.9 °F 43.0 °F 31% 30.08 in 10.0 mi South 9.2 mph - N/A   Clear
5:53 PM 72.0 °F 46.0 °F 40% 30.09 in 10.0 mi South 8.1 mph - N/A   Clear
6:53 PM 66.0 °F 46.0 °F 48% 30.10 in 10.0 mi SSE 6.9 mph - N/A   Clear
7:53 PM 61.0 °F 46.9 °F 60% 30.10 in 10.0 mi SSE 4.6 mph - N/A   Clear
8:53 PM 57.9 °F 48.0 °F 70% 30.11 in 10.0 mi South 6.9 mph - N/A   Clear
9:53 PM 62.1 °F 48.0 °F 60% 30.10 in 10.0 mi South 9.2 mph - N/A   Clear
10:53 PM 61.0 °F 46.9 °F 60% 30.11 in 10.0 mi South 8.1 mph - N/A   Clear
11:53 PM 59.0 °F 48.0 °F 67% 30.11 in 10.0 mi South 9.2 mph - N/A   Clear